{"data":{"norad_id":55142,"epoch":"2026-09-19T13:28:27.981408Z","epoch_age_seconds":103019,"freshness":"FRESH","line1":"1 55142U 23004C   26262.56143497 -.00001734  00000+0 -49296-2 0  9991","line2":"2 55142  87.8972   2.3023 0001628 104.1396 255.9913 13.11403557178315","mean_motion":13.11403557,"eccentricity":0.0001628,"inclination_deg":87.8972,"raan_deg":2.3023,"arg_perigee_deg":104.1396,"mean_anomaly_deg":255.9913,"bstar":-0.0049296,"rev_number":17831,"period_min":109.80601602867,"perigee_km":1216.4977871124,"apogee_km":1218.9710028386,"semimajor_km":7595.8713949755,"source":"CELESTRAK","updated_at":"2026-09-20T09:00:44.750245Z"}}